| time (UTC) | temp F | wind direction | speed MPH | gust MPH | rain 1hr in | rain 24hr in | rain mn in | humidity % | barometer mb |
| 20260502163016 | 54 | 45 | 1.0 | 7.0 | 0.00 | 0.00 | 0.00 | 43 | 1011.8 |
| 20260502161516 | 53 | 45 | 2.0 | 8.0 | 0.00 | 0.00 | 0.00 | 48 | 1012.0 |
| 20260502151517 | 50 | 45 | 1.0 | 7.0 | 0.00 | 0.00 | 0.00 | 52 | 1012.2 |
| 20260502123101 | 40 | 0.0 | 2.0 | 0.00 | 0.00 | 0.00 | 99 | 1012.1 | |
| 20260502121516 | 39 | 0.0 | 2.0 | 0.00 | 0.00 | 0.00 | 99 | 1011.9 | |
| 20260502114537 | 38 | 0.0 | 0.0 | 0.00 | 0.00 | 0.00 | 99 | 1011.6 | |
| 20260502113017 | 36 | 0.0 | 0.0 | 0.00 | 0.00 | 0.00 | 99 | 1011.6 | |
| 20260502111517 | 36 | 0.0 | 0.0 | 0.00 | 0.00 | 0.00 | 98 | 1011.3 | |
| 20260502110017 | 35 | 0.0 | 0.0 | 0.00 | 0.00 | 0.00 | 98 | 1011.1 | |
| 20260502104537 | 35 | 0.0 | 0.0 | 0.00 | 0.00 | 0.00 | 97 | 1011.2 | |
| 20260502103017 | 36 | 0.0 | 0.0 | 0.00 | 0.00 | 0.00 | 97 | 1011.4 | |
| 20260502101517 | 36 | 0.0 | 0.0 | 0.00 | 0.00 | 0.00 | 97 | 1011.3 | |
| 20260502100119 | 37 | 0.0 | 0.0 | 0.00 | 0.00 | 0.00 | 97 | 1011.3 | |
| 20260502091517 | 38 | 0.0 | 0.0 | 0.00 | 0.00 | 0.00 | 97 | 1011.2 | |
| 20260502071517 | 38 | 0.0 | 0.0 | 0.00 | 0.00 | 0.00 | 95 | 1010.9 | |
| 20260502070019 | 38 | 0.0 | 0.0 | 0.00 | 0.00 | 0.00 | 95 | 1010.8 | |
| 20260502064517 | 39 | 0.0 | 0.0 | 0.00 | 0.00 | 0.00 | 94 | 1010.7 | |
| 20260502063017 | 39 | 0.0 | 0.0 | 0.00 | 0.00 | 0.00 | 94 | 1011.0 | |
| 20260502061517 | 39 | 0.0 | 0.0 | 0.00 | 0.00 | 0.00 | 94 | 1011.4 | |
| 20260502060017 | 39 | 0.0 | 0.0 | 0.00 | 0.00 | 0.00 | 93 | 1011.5 | |
| 20260502054517 | 39 | 0.0 | 0.0 | 0.00 | 0.00 | 0.00 | 93 | 1011.5 | |
| 20260502053017 | 40 | 0.0 | 0.0 | 0.00 | 0.00 | 0.00 | 92 | 1011.5 | |
| 20260502051517 | 40 | 0.0 | 0.0 | 0.00 | 0.00 | 0.00 | 92 | 1011.4 | |
| 20260502050016 | 40 | 0.0 | 0.0 | 0.00 | 0.00 | 0.00 | 91 | 1011.3 | |
| 20260502044515 | 40 | 0.0 | 0.0 | 0.00 | 0.00 | 0.00 | 91 | 1011.4 | |
| 20260502043015 | 41 | 0.0 | 0.0 | 0.00 | 0.00 | 0.00 | 91 | 1011.6 | |
| 20260502041537 | 41 | 0.0 | 0.0 | 0.00 | 0.00 | 0.00 | 90 | 1011.7 | |
| 20260502040017 | 41 | 0.0 | 0.0 | 0.00 | 0.00 | 0.00 | 90 | 1011.6 | |
| 20260502034516 | 42 | 0.0 | 0.0 | 0.00 | 0.00 | 0.00 | 89 | 1011.6 | |
| 20260502033016 | 42 | 0.0 | 0.0 | 0.00 | 0.00 | 0.00 | 88 | 1011.7 | |
| 20260502031516 | 43 | 0.0 | 0.0 | 0.00 | 0.00 | 0.00 | 87 | 1011.6 | |
| 20260502030016 | 43 | 0.0 | 0.0 | 0.00 | 0.00 | 0.00 | 86 | 1011.6 | |
| 20260502024516 | 43 | 0.0 | 0.0 | 0.00 | 0.00 | 0.00 | 86 | 1011.5 | |
| 20260502023017 | 44 | 0.0 | 0.0 | 0.00 | 0.00 | 0.00 | 85 | 1011.4 | |
| 20260502021516 | 44 | 0.0 | 0.0 | 0.00 | 0.00 | 0.00 | 83 | 1011.2 | |
| 20260502020058 | 45 | 0.0 | 0.0 | 0.00 | 0.00 | 0.00 | 81 | 1011.1 | |
| 20260502014516 | 46 | 0.0 | 0.0 | 0.00 | 0.00 | 0.00 | 80 | 1010.7 | |
| 20260502013036 | 46 | 0.0 | 0.0 | 0.00 | 0.00 | 0.00 | 79 | 1010.7 | |
| 20260502011516 | 47 | 0.0 | 0.0 | 0.00 | 0.00 | 0.00 | 76 | 1010.5 | |
| 20260502010037 | 48 | 0.0 | 0.0 | 0.00 | 0.00 | 0.00 | 74 | 1010.2 | |
| 20260502004517 | 49 | 0.0 | 0.0 | 0.00 | 0.00 | 0.00 | 70 | 1010.0 | |
| 20260502003038 | 49 | 0.0 | 0.0 | 0.00 | 0.00 | 0.00 | 64 | 1009.4 | |
| 20260502001536 | 50 | 0.0 | 1.0 | 0.00 | 0.00 | 0.00 | 62 | 1009.1 | |
| 20260502000016 | 51 | 0.0 | 5.0 | 0.00 | 0.00 | 0.00 | 58 | 1009.2 | |
| 20260501234518 | 52 | 0.0 | 6.0 | 0.00 | 0.00 | 0.00 | 54 | 1009.5 | |
| 20260501233016 | 52 | 0.0 | 3.0 | 0.00 | 0.00 | 0.00 | 55 | 1009.2 | |
| 20260501231516 | 53 | 0.0 | 3.0 | 0.00 | 0.00 | 0.00 | 59 | 1009.2 | |
| 20260501230036 | 53 | 0.0 | 5.0 | 0.00 | 0.00 | 0.00 | 56 | 1009.4 | |
| 20260501224536 | 53 | 0.0 | 3.0 | 0.00 | 0.00 | 0.00 | 56 | 1009.3 | |
| 20260501223016 | 54 | 45 | 1.0 | 12.0 | 0.00 | 0.00 | 0.00 | 53 | 1009.2 |
| 20260501221540 | 54 | 68 | 1.0 | 7.0 | 0.00 | 0.00 | 0.00 | 52 | 1009.3 |
| 20260501220018 | 54 | 45 | 1.0 | 8.0 | 0.00 | 0.00 | 0.00 | 54 | 1009.4 |
| 20260501214516 | 54 | 45 | 1.0 | 8.0 | 0.00 | 0.00 | 0.00 | 54 | 1009.3 |
| 20260501213036 | 55 | 45 | 2.0 | 10.0 | 0.00 | 0.00 | 0.00 | 55 | 1009.3 |
| 20260501211516 | 54 | 45 | 1.0 | 8.0 | 0.00 | 0.00 | 0.00 | 56 | 1009.1 |
| 20260501210016 | 55 | 45 | 2.0 | 12.0 | 0.00 | 0.00 | 0.00 | 53 | 1009.1 |
| 20260501204518 | 54 | 45 | 2.0 | 13.0 | 0.00 | 0.00 | 0.00 | 55 | 1009.1 |
| 20260501203018 | 55 | 90 | 1.0 | 8.0 | 0.00 | 0.00 | 0.00 | 55 | 1009.0 |
| 20260501201518 | 56 | 68 | 1.0 | 7.0 | 0.00 | 0.00 | 0.00 | 54 | 1009.0 |
| 20260501200017 | 57 | 113 | 1.0 | 8.0 | 0.00 | 0.00 | 0.00 | 55 | 1008.9 |
| 20260501194518 | 57 | 45 | 1.0 | 9.0 | 0.00 | 0.00 | 0.00 | 55 | 1008.9 |
| 20260501193016 | 57 | 45 | 2.0 | 11.0 | 0.00 | 0.00 | 0.00 | 53 | 1008.9 |
| 20260501191516 | 58 | 225 | 1.0 | 8.0 | 0.00 | 0.00 | 0.00 | 52 | 1008.8 |
| 20260501190017 | 57 | 68 | 1.0 | 16.0 | 0.00 | 0.00 | 0.00 | 52 | 1008.8 |
| 20260501184516 | 57 | 180 | 1.0 | 8.0 | 0.00 | 0.00 | 0.00 | 56 | 1008.7 |
| 20260501183017 | 58 | 45 | 1.0 | 10.0 | 0.00 | 0.00 | 0.00 | 54 | 1008.7 |
| 20260501181517 | 57 | 180 | 1.0 | 8.0 | 0.00 | 0.00 | 0.00 | 56 | 1008.5 |
| 20260501180017 | 57 | 225 | 1.0 | 12.0 | 0.00 | 0.00 | 0.00 | 57 | 1008.4 |
| 20260501174557 | 57 | 45 | 2.0 | 12.0 | 0.00 | 0.00 | 0.00 | 58 | 1008.2 |
| 20260501173037 | 56 | 0.0 | 4.0 | 0.00 | 0.00 | 0.00 | 60 | 1007.9 | |
| 20260501171558 | 56 | 225 | 1.0 | 6.0 | 0.00 | 0.00 | 0.00 | 59 | 1007.9 |